Location: Martz Observatory
(42.0083°N, 79.0667°W)
Time: 01:18:53
(UTC-04:00)

PSLV R/B - Pass Details

Date: 26 May 2018
Orbit: 597 x 703 km, 97.9° (Epoch: 20 August)

Event Time Altitude Azimuth Distance (km) Brightness Sun altitude
Rises 02:32:12 0° 6° (N) 2,907 8.3 -24.3°
Reaches altitude 10° 02:34:26 10° 0° (N) 2,011 7.1 -24.1°
Maximum altitude 02:38:37 46° 288° (WNW) 863 4.2 -23.9°
Enters shadow 02:38:42 46° 284° (WNW) 865 4.1 -23.8°
